Weather History for KMLP - November, 2011

Change the Weather History Date:

Wednesday, November 9, 2011

  Actual Average (K3TH) Record (K3TH)
Temperature  
Mean Temperature 28 °F -  
Max Temperature 32 °F 42 °F 55 °F (1999)
Min Temperature 23 °F 30 °F 24 °F (2001)
Degree Days  
Heating Degree Days 38    
Moisture  
Dew Point 22 °F    
Average Humidity 81    
Maximum Humidity 96    
Minimum Humidity 59    
Precipitation  
Precipitation 0.00 in - - ()
Sea Level Pressure  
Sea Level Pressure 30.41 in    
Wind  
Wind Speed 8 mph (South)    
Max Wind Speed 12 mph    
Max Gust Speed 24 mph    
Visibility 10 miles    
Events      
Averages and records for this station are not official NWS values.
T = Trace of Precipitation, MM = Missing Value Source: NWS Daily Summary

Daily Weather History Graph

Daily Weather History Graph

Search for Another Location

Airport or City:

Trip Planner

Search our weather history database for the weather conditions in past years. The results will help you decide how hot, cold, wet, or windy it might be!

Date:

Astronomy

Nov. 09, 2011 Rise Set
Actual Time 6:38 AM PST 4:14 PM PST
Civil Twilight 6:05 AM PST 4:47 PM PST
Nautical Twilight 5:28 AM PST 5:23 PM PST
Astronomical Twilight 4:52 AM PST 5:59 PM PST
Moon 3:27 PM PST (11/9) 5:37 AM PST (11/9)
Length of Visible Light 10h 41m
Length of Day
9h 36m
Waxing Gibbous, 99% of the Moon is Illuminated
Nov 9
Waxing Gibbous
Nov 10
Full
Nov 18
Last Quarter
Nov 24
New
Dec 2
First Quarter

Hourly Weather History & Observations

Time (PST) Temp. Windchill Dew Point Humidity Pressure Visibility Wind Dir Wind Speed Gust Speed Precip Events Conditions
12:53 AM 24.1 °F 15.2 °F 21.9 °F 91% 30.43 in 10.0 mi South 8.1 mph - N/A   Clear
1:53 AM 24.1 °F 16.0 °F 23.0 °F 96% 30.44 in 10.0 mi South 6.9 mph - N/A   Overcast
2:53 AM 24.1 °F 14.4 °F 23.0 °F 96% 30.44 in 10.0 mi South 9.2 mph - N/A   Partly Cloudy
3:53 AM 24.1 °F 14.4 °F 21.9 °F 91% 30.44 in 10.0 mi South 9.2 mph - N/A   Clear
4:53 AM 23.0 °F 13.1 °F 21.9 °F 96% 30.46 in 10.0 mi South 9.2 mph - N/A   Clear
5:53 AM 23.0 °F 13.1 °F 21.9 °F 96% 30.47 in 10.0 mi South 9.2 mph - N/A   Clear
6:53 AM 23.0 °F 12.4 °F 21.9 °F 96% 30.49 in 10.0 mi South 10.4 mph - N/A   Partly Cloudy
7:53 AM 24.1 °F 14.4 °F 21.9 °F 91% 30.49 in 10.0 mi South 9.2 mph 16.1 mph N/A   Overcast
8:53 AM 25.0 °F 15.5 °F 24.1 °F 96% 30.48 in 10.0 mi South 9.2 mph - N/A   Scattered Clouds
9:53 AM 26.1 °F 16.2 °F 24.1 °F 92% 30.50 in 10.0 mi South 10.4 mph - N/A   Overcast
10:53 AM 28.0 °F 19.3 °F 25.0 °F 88% 30.49 in 10.0 mi South 9.2 mph - N/A   Mostly Cloudy
11:53 AM 30.9 °F 24.3 °F 26.1 °F 82% 30.46 in 10.0 mi South 6.9 mph - N/A   Clear
12:53 PM 32.0 °F 25.6 °F 26.1 °F 79% 30.45 in 10.0 mi South 6.9 mph - N/A   Clear
1:53 PM 32.0 °F 26.4 °F 25.0 °F 75% 30.44 in 10.0 mi Variable 5.8 mph - N/A   Clear
2:53 PM 32.0 °F - 26.1 °F 79% 30.42 in 10.0 mi Calm Calm - N/A   Clear
3:53 PM 30.0 °F 24.1 °F 24.1 °F 79% 30.42 in 10.0 mi South 5.8 mph - N/A   Clear
4:53 PM 30.0 °F 21.7 °F 21.9 °F 72% 30.40 in 10.0 mi South 9.2 mph - N/A   Mostly Cloudy
5:53 PM 28.9 °F 21.1 °F 21.9 °F 75% 30.39 in 10.0 mi South 8.1 mph - N/A   Clear
6:53 PM 28.9 °F 20.4 °F 21.0 °F 72% 30.39 in 10.0 mi South 9.2 mph - N/A   Clear
7:53 PM 30.0 °F 21.1 °F 19.9 °F 66% 30.38 in 10.0 mi South 10.4 mph 17.3 mph N/A   Clear
8:53 PM 30.9 °F 21.7 °F 19.0 °F 61% 30.35 in 10.0 mi South 11.5 mph 24.2 mph N/A   Clear
9:53 PM 30.9 °F 21.7 °F 18.0 °F 59% 30.33 in 10.0 mi SSW 11.5 mph 20.7 mph N/A   Clear
10:53 PM 30.9 °F 22.8 °F 18.0 °F 59% 30.17 in 10.0 mi South 9.2 mph 17.3 mph N/A   Clear
11:53 PM 30.0 °F 23.2 °F 17.1 °F 59% 30.15 in 10.0 mi South 6.9 mph - N/A   Clear